Preview of NWS' New Version of Forecast
This preview is not operational and should not be used for support decisions.

Regional Weather Roundup (RWR)

Issued by National Weather Service (NWS)

                            
000
ASUS43 KBIS 201610
RWRND 

NORTH DAKOTA REGIONAL WEATHER ROUNDUP
NATIONAL WEATHER SERVICE BISMARCK ND
1100 AM CDT THU JUN 20 2019

NOTE: "FAIR" INDICATES FEW OR NO CLOUDS BELOW 12,000 FEET WITH NO
SIGNIFICANT WEATHER AND/OR OBSTRUCTIONS TO VISIBILITY.


NDZ001>003-009>011-017-201700-
NORTHWEST NORTH DAKOTA
  
CITY           SKY/WX    TMP DP  RH WIND       PRES   REMARKS
WILLISTON      PTSUNNY   62  50  64 NW7       29.71S                  
MINOT          LGT RAIN  57  54  89 SE7       29.69R                  
MINOT AFB      LGT RAIN  57  57 100 S8        29.68R                  
$$
 
NDZ018>021-031>035-040>046-201700-
SOUTHWEST NORTH DAKOTA
  
CITY           SKY/WX    TMP DP  RH WIND       PRES   REMARKS
BISMARCK       CLOUDY    64  56  75 NW7       29.71R                  
DICKINSON      MOSUNNY   63  53  70 W14       29.72S                  
GARRISON         N/A     59  52  77 NW6       29.70R                  
HETTINGER ARPT MOSUNNY   63  52  67 W14       29.76R                  
$$
 
NDZ004>008-012>016-024-026-027-054-201700-
NORTHEAST NORTH DAKOTA
  
CITY           SKY/WX    TMP DP  RH WIND       PRES   REMARKS
GRAND FORKS    PTSUNNY   72  48  42 SE17      29.74S                  
GRND FRKS AFB  PTSUNNY   68  50  52 SE9       29.74S                  
DEVILS LAKE    LGT RAIN  59  56  89 E12       29.73S                  
$$
 
NDZ022-023-025-028>030-036>039-047>053-201700-
SOUTHEAST NORTH DAKOTA
  
CITY           SKY/WX    TMP DP  RH WIND       PRES   REMARKS
FARGO          CLOUDY    63  54  72 E13       29.72S                  
JAMESTOWN      CLOUDY    62  56  80 SE12      29.69R                  
$$